Location: Boneville
(33.4331°N, 82.4399°W)
Time: 22:50:15
(UTC+00:00)

Hubble Space Telescope - Pass Details

Date: 24 September 2024
Orbit: 504 x 508 km, 28.5° (Epoch: 06 October)

Event Time Altitude Azimuth Distance (km) Brightness Sun altitude
Exits shadow 10:19:17 - 201° (SSW) 2,273 3.7 -13.4°
Reaches altitude 10° 10:22:20 10° 166° (SSE) 1,694 3.4 -12.7°
Maximum altitude 10:23:04 10° 156° (SSE) 1,668 3.5 -12.6°
Drops below altitude 10° 10:23:47 10° 145° (SE) 1,695 3.7 -12.4°
Sets 10:27:52 0° 104° (ESE) 2,582 5.7 -11.6°
